Terminal Aerodrome Forecast
Issued by NWS

Home | Current Version | Previous Version | Graphics & Text | Print | Product List | Glossary On
Versions: 1 2 3 4 5 6 7 8 9 10 11 12 13 14 15 16 17 18 19 20
000
FTUS43 KABR 292325
TAFATY
TAF
KATY 292325Z 3000/3024 32009KT P6SM OVC250
      TEMPO 3002/3006 6SM HZ SCT070
     FM300600 VRB05KT 5SM HZ BKN070
     FM301700 14007KT P6SM OVC250=

USA.gov is the U.S. government's official web portal to all federal, state and local government web resources and services.